Temperature
17 17 17 17 17 17 17 17 17 17 18 18 18 18 17 17 17 17 17 17 17 17 17 17 16 16 16 16 16 16 16 15 15 15 15 15 15 15
17 17 17 17 17 17 17 17 17 17 17 18 18 18 17 17 17 17 17 17 17 17 17 17 16 16 16 16 16 16 16 16 15 15 15 15 15 15
17 17 17 17 17 17 17 17 17 17 16 17 17 17 17 17 17 17 17 17 17 17 16 16 16 16 16 16 16 16 16 16 15 15 15 15 15 15
17 17 17 17 16 17 17 17 17 17 16 16 17 17 16 16 16 16 16 16 16 16 16 16 16 16 16 16 16 16 16 15 15 15 15 15 15 15
16 16 16 16 16 16 16 16 16 16 16 16 16 16 16 16 16 16 16 16 16 16 16 16 16 16 16 16 16 16 15 15 15 15 15 15 15 15
16 16 16 16 16 16 16 16 16 16 16 16 16 16 16 16 16 15 16 16 16 16 16 16 16 16 16 16 15 15 15 15 15 15 15 15 15 14
16 16 16 16 16 16 16 16 16 16 16 16 15 15 15 15 15 15 15 15 15 15 15 15 15 15 15 15 15 15 15 15 15 15 14 14 14 14
16 16 15 15 15 15 16 15 15 15 15 15 15 15 15 15 15 15 15 15 15 15 14 15 15 15 15 14 15 15 15 14 14 14 14 14 14 14
15 15 15 15 15 15 15 15 15 15 15 14 14 14 14 14 14 14 14 14 14 14 14 14 14 14 14 14 14 14 14 14 14 14 14 13 13 13
15 15 15 15 14 14 14 14 14 14 14 14 14 14 14 14 14 13 13 13 13 13 13 13 13 13 13 13 13 13 13 13 13 13 13 13 13 13
14 14 14 14 14 14 14 14 13 13 13 13 13 13 13 13 13 13 13 13 13 13 13 13 13 13 13 13 13 13 12 12 12 12 12 12 12 12
13 13 13 13 13 13 13 13 13 13 13 13 13 13 13 12 12 12 12 12 12 12 12 12 12 12 12 12 12 12 11 11 11 11 11 11 11 11
13 12 13 13 13 13 13 12 12 12 12 12 12 12 12 12 12 12 12 11 11 11 11 11 11 11 11 11 11 11 11 11 11 11 11 10 10 10
12 12 12 12 12 12 12 12 11 11 11 11 11 11 11 11 11 11 11 11 11 10 10 10 10 10 10 11 11 11 10 10 10 10 10 10 10 10
11 11 11 11 11 11 11 11 11 11 11 10 10 10 10 10 10 10 10 10 10 10 10 10 10 10 10 10 10 10 10 10 10 9 9 9 9 9
11 11 11 11 10 10 10 10 10 10 10 10 9 9 9 10 10 10 10 10 10 10 9 9 9 9 9 9 9 9 9 9 9 9 8 9 9 9
10 10 10 9 9 9 9 9 9 9 9 9 9 9 9 9 9 9 9 9 9 9 9 9 9 8 8 8 8 8 8 8 8 8 8 8 8 8
9 9 9 9 8 8 8 8 8 8 8 8 8 8 8 8 8 8 8 8 8 8 8 8 8 8 8 8 8 7 7 7 7 7 7 7 7 7
9 8 8 8 8 8 8 8 8 7 7 7 7 7 7 7 7 7 7 7 7 7 7 7 7 7 7 8 7 7 6 6 7 7 7 7 7 7
8 8 8 7 7 7 7 7 7 7 7 7 7 7 7 7 7 7 7 6 7 7 7 6 6 6 6 6 6 6 6 6 6 6 6 6 6 6
7 7 7 7 7 7 6 6 6 6 6 6 6 6 6 6 6 6 6 6 6 6 6 6 6 6 6 6 6 6 6 6 5 5 5 5 6 6
7 7 6 6 6 6 6 6 6 6 6 6 6 6 6 6 6 6 6 6 6 6 6 6 5 5 6 6 6 6 6 5 5 5 5 5 5 5
6 6 6 6 5 5 5 5 5 5 5 5 5 5 5 5 5 5 5 5 5 5 5 5 5 5 6 5 5 5 5 5 5 5 5 5 5 4
Wind_Speed
10 10 10 9 9 9 8 8 9 9 8 7 7 5 5 7 6 8 10 11 15 16 17 17 17 17 17 17 18 18 19 19 18 18 18 18 19 19
8 9 9 9 8 8 8 8 8 9 9 7 6 6 4 6 7 9 10 10 13 16 16 16 16 16 16 16 17 18 18 19 19 19 19 19 18 18
9 9 10 10 8 8 8 8 9 9 10 10 8 6 6 8 6 7 9 10 10 14 16 16 16 15 15 15 15 16 17 17 18 18 18 18 18 18
9 9 10 8 9 9 8 9 8 8 9 11 9 7 7 7 7 8 8 9 9 11 15 16 16 16 15 15 15 15 15 16 16 16 16 17 17 17
8 8 9 9 9 7 7 8 7 8 8 9 9 6 6 6 6 7 9 7 9 9 12 14 15 15 15 14 14 14 15 15 15 15 16 16 16 16
6 7 7 7 8 8 7 7 7 7 7 7 7 6 5 5 5 6 6 6 6 7 6 8 11 14 14 14 14 14 14 14 15 15 15 15 15 15
4 4 4 4 4 5 5 5 5 5 5 5 5 5 5 4 5 5 6 6 5 5 6 7 7 8 10 12 14 13 13 13 14 14 15 15 15 14
3 3 3 2 1 1 1 2 2 4 5 4 4 5 5 5 4 5 5 5 5 4 5 6 6 6 6 6 8 11 13 13 13 13 13 13 13 14
2 2 2 2 2 1 2 2 1 1 2 3 4 5 5 5 5 6 5 5 5 4 4 5 5 5 4 3 5 7 9 10 11 11 12 12 12 13
3 3 2 3 4 3 2 3 3 4 3 2 2 3 4 5 4 5 5 4 5 4 3 5 5 5 5 3 3 6 7 8 9 10 10 11 11 12
4 5 4 3 6 4 3 3 3 3 4 4 4 3 4 5 5 3 3 3 4 3 2 4 4 4 4 4 3 5 7 8 8 9 9 9 10 10
4 5 8 7 7 5 3 3 3 3 4 4 4 4 4 5 4 4 4 4 4 3 3 3 3 3 4 3 3 2 3 5 8 9 9 9 8 7
4 5 6 9 8 7 6 5 3 2 3 4 4 5 4 4 5 4 4 3 3 3 3 3 3 4 4 4 4 4 4 3 3 4 7 8 8 7
5 5 5 7 8 8 7 5 4 3 3 4 4 5 5 5 5 4 4 4 3 3 4 4 3 4 5 5 4 4 4 4 4 4 4 5 7 9
6 7 7 7 6 7 7 6 5 5 5 4 5 5 5 5 5 4 4 2 2 2 4 4 4 4 5 5 5 5 4 4 4 4 5 4 4 4
6 6 6 6 5 5 6 6 6 6 5 5 5 5 5 5 5 5 5 5 4 3 4 4 4 5 5 6 6 5 5 5 4 4 5 5 4 3
5 5 6 6 6 7 7 7 6 6 6 6 5 5 6 6 6 5 5 5 5 5 5 4 5 4 4 5 5 5 5 5 5 4 5 5 4 4
5 7 7 7 7 7 7 6 7 7 6 6 6 6 6 6 6 6 6 6 6 6 6 6 6 5 4 2 4 5 5 6 6 6 6 6 5 4
7 7 7 7 6 6 6 6 6 6 6 6 6 6 6 6 6 6 6 6 6 6 6 6 6 7 7 6 4 5 6 7 7 6 6 6 6 5
7 7 6 6 6 6 6 6 6 6 6 6 6 6 6 6 6 6 6 7 7 6 6 6 6 7 7 7 6 5 5 7 7 7 7 6 5 4
7 6 6 6 6 6 6 6 6 6 6 6 6 6 6 6 6 6 6 6 6 6 7 7 6 7 6 5 5 5 5 5 5 6 7 7 6 6
6 6 6 6 6 6 6 6 6 6 6 6 6 6 6 6 6 7 7 7 7 7 7 6 6 6 6 6 6 6 6 6 4 3 3 4 6 6
6 6 5 6 6 6 6 6 7 6 6 6 6 7 7 7 6 7 7 7 7 8 7 7 6 6 6 6 6 6 7 7 6 5 3 2 1 2
Wind_Direction
243 239 241 249 248 248 248 249 256 265 265 251 248 240 240 246 235 240 247 232 226 228 230 232 233 233 233 234 234 236 236 237 237 238 239 239 241 239
248 250 248 250 249 249 249 249 248 255 265 268 253 253 250 258 226 237 244 235 230 228 230 230 231 233 234 235 236 236 236 235 236 237 239 241 241 240
251 250 250 253 250 249 245 244 245 245 256 266 266 258 245 258 253 245 248 243 237 217 218 224 227 229 231 233 235 237 237 235 236 237 238 239 239 239
256 256 257 255 250 251 251 249 247 244 251 262 268 265 251 253 253 251 252 246 247 215 210 218 224 227 229 230 232 234 235 235 236 236 237 237 238 238
264 260 259 259 258 255 254 255 253 250 248 257 264 268 265 259 257 256 253 251 252 229 207 212 217 220 223 225 227 230 232 233 235 236 236 236 236 236
273 266 263 260 260 259 255 255 256 258 254 256 264 270 268 262 257 260 261 247 254 257 240 221 210 211 216 219 225 228 230 231 233 235 236 237 238 238
297 289 279 277 286 276 271 267 262 258 261 259 263 267 268 269 265 264 266 262 253 259 260 245 221 220 216 217 222 225 228 230 232 234 236 237 236 236
318 315 307 306 282 273 304 310 294 268 269 270 271 277 283 281 283 280 279 273 270 262 260 264 257 250 238 229 203 210 220 226 230 232 234 234 234 236
353 343 338 0 2 19 85 105 65 30 304 287 291 296 297 298 293 284 280 281 281 290 285 276 274 269 261 243 173 187 210 223 228 230 231 232 234 237
14 15 18 16 16 18 46 60 46 37 31 9 344 337 339 336 308 285 281 268 267 274 274 271 279 276 274 263 181 190 206 219 226 229 231 233 236 240
44 34 26 31 29 24 60 67 57 45 61 68 54 33 18 7 344 317 307 290 288 295 303 280 287 291 286 273 229 205 210 214 218 223 228 231 237 245
61 53 47 38 33 33 53 57 51 25 20 38 51 44 30 31 21 360 340 322 317 317 350 318 300 308 289 279 276 256 231 217 221 221 222 227 237 255
62 54 46 48 50 43 48 48 30 16 40 44 40 34 29 25 24 21 5 343 329 323 342 318 297 296 285 291 289 276 274 269 248 236 226 227 236 245
64 59 59 59 63 57 52 32 16 28 49 45 39 30 21 15 14 15 19 17 357 332 334 328 303 299 293 291 297 299 292 292 286 279 272 242 241 236
73 65 58 58 68 65 52 36 34 38 39 38 31 23 14 8 360 1 2 360 353 358 2 350 328 316 300 297 300 303 301 302 304 305 303 291 283 273
75 84 91 76 69 65 51 44 42 35 28 29 20 13 10 9 9 2 355 350 347 0 16 7 351 332 320 315 308 308 313 309 313 311 312 304 300 293
71 70 63 59 55 51 49 43 37 33 30 25 19 14 11 10 7 4 359 351 352 352 354 356 351 341 337 325 315 319 320 318 315 316 303 301 305 304
65 67 59 53 48 44 39 35 32 27 21 20 19 15 10 8 6 2 0 356 354 354 354 353 346 336 325 3 9 335 329 329 327 321 309 304 306 313
66 61 55 47 40 37 34 31 29 25 14 17 18 13 5 4 6 4 0 357 354 351 351 351 351 344 335 332 360 13 341 329 322 319 317 312 311 319
58 54 50 44 38 32 27 24 22 21 17 14 13 7 5 4 3 359 0 356 347 346 349 355 357 347 334 326 325 336 345 332 326 321 319 320 326 329
56 50 44 39 36 33 26 20 19 19 14 7 10 2 359 358 360 356 354 349 338 346 346 350 350 322 314 318 323 338 344 344 334 322 320 317 315 311
51 47 40 36 32 29 23 17 16 16 12 8 5 359 358 355 353 349 347 345 345 344 340 340 339 333 334 334 334 334 335 335 332 313 314 318 326 324
43 39 35 31 30 23 19 15 14 13 9 4 359 355 353 351 346 345 344 343 344 343 340 341 341 338 338 336 335 336 336 334 333 330 356 43 17 294
Height
1555 1555 1556 1557 1557 1558 1558 1559 1560 1558 1558 1558 1558 1558 1558 1557 1557 1556 1556 1556 1556 1556 1556 1557 1557 1558 1558 1559 1559 1560 1561 1561 1562 1562 1563 1563 1564 1564
1550 1551 1551 1551 1552 1552 1553 1553 1554 1554 1553 1553 1553 1554 1553 1553 1552 1552 1551 1551 1551 1551 1551 1551 1552 1552 1553 1553 1554 1554 1555 1556 1556 1557 1557 1558 1558 1558
1546 1546 1546 1546 1547 1547 1547 1548 1548 1549 1548 1548 1549 1549 1548 1547 1547 1547 1546 1546 1546 1545 1545 1546 1546 1547 1547 1548 1548 1549 1549 1550 1550 1551 1551 1552 1552 1553
1541 1541 1541 1542 1542 1542 1543 1543 1543 1543 1543 1542 1543 1543 1542 1542 1542 1541 1541 1541 1541 1540 1540 1540 1541 1541 1541 1542 1542 1543 1543 1544 1544 1544 1545 1545 1546 1546
1537 1537 1537 1537 1537 1538 1538 1538 1538 1539 1538 1538 1538 1538 1537 1537 1537 1536 1536 1536 1536 1536 1535 1535 1535 1535 1536 1536 1536 1537 1537 1538 1538 1538 1539 1539 1540 1540
1533 1533 1533 1533 1533 1533 1533 1533 1533 1534 1534 1534 1533 1533 1533 1533 1533 1532 1532 1531 1531 1531 1531 1530 1530 1530 1530 1530 1530 1531 1531 1532 1532 1532 1533 1533 1533 1534
1530 1529 1529 1529 1529 1529 1529 1529 1529 1529 1530 1529 1529 1529 1529 1529 1528 1528 1528 1527 1526 1526 1526 1526 1525 1525 1524 1524 1524 1524 1525 1525 1526 1526 1526 1526 1527 1527
1527 1527 1526 1526 1525 1525 1525 1525 1525 1526 1526 1526 1525 1525 1524 1525 1524 1524 1523 1523 1522 1523 1522 1521 1521 1520 1520 1519 1518 1518 1519 1519 1520 1520 1520 1520 1520 1520
1525 1525 1524 1524 1523 1523 1522 1522 1522 1522 1522 1522 1522 1521 1521 1521 1520 1520 1519 1518 1518 1517 1517 1516 1516 1515 1515 1514 1513 1513 1513 1513 1513 1513 1513 1513 1513 1513
1524 1523 1522 1522 1521 1520 1520 1520 1519 1519 1519 1519 1518 1518 1518 1517 1516 1516 1515 1514 1513 1513 1513 1512 1511 1511 1510 1510 1508 1508 1507 1507 1507 1506 1506 1506 1506 1506
1522 1522 1521 1520 1520 1519 1519 1518 1518 1518 1518 1517 1516 1515 1514 1513 1513 1512 1512 1512 1511 1510 1509 1508 1507 1506 1506 1505 1504 1503 1502 1501 1501 1501 1501 1500 1500 1500
1521 1521 1520 1520 1519 1518 1518 1517 1517 1516 1516 1515 1514 1513 1512 1511 1510 1510 1509 1509 1508 1507 1506 1505 1504 1503 1502 1501 1501 1499 1498 1497 1496 1496 1495 1495 1494 1494
1521 1520 1520 1519 1518 1518 1517 1516 1516 1515 1515 1514 1513 1512 1511 1510 1509 1508 1507 1507 1506 1505 1504 1502 1501 1501 1500 1498 1496 1496 1495 1494 1492 1492 1491 1490 1489 1489
1520 1520 1520 1519 1518 1518 1517 1516 1516 1515 1515 1514 1513 1512 1511 1510 1509 1508 1506 1505 1504 1503 1502 1500 1499 1498 1497 1495 1494 1492 1491 1490 1489 1488 1487 1485 1484 1484
1521 1521 1520 1519 1519 1518 1517 1516 1516 1516 1515 1514 1513 1513 1512 1510 1509 1507 1506 1504 1503 1502 1500 1498 1497 1496 1495 1493 1491 1490 1488 1486 1485 1484 1482 1481 1480 1479
1522 1521 1521 1520 1520 1519 1518 1518 1517 1516 1516 1515 1514 1513 1512 1510 1509 1507 1506 1504 1503 1501 1499 1497 1495 1493 1492 1491 1489 1487 1486 1484 1482 1480 1479 1477 1476 1475
1523 1523 1523 1522 1522 1521 1521 1520 1519 1518 1517 1516 1515 1513 1512 1510 1508 1507 1505 1503 1502 1500 1498 1496 1494 1492 1490 1489 1487 1485 1483 1482 1480 1478 1476 1474 1473 1472
1525 1525 1525 1524 1523 1523 1522 1521 1520 1519 1518 1516 1515 1514 1512 1510 1508 1507 1505 1503 1502 1500 1497 1495 1493 1491 1489 1487 1486 1483 1481 1479 1478 1476 1474 1472 1470 1469
1528 1527 1527 1526 1526 1525 1524 1523 1522 1520 1519 1517 1516 1514 1512 1511 1509 1507 1505 1503 1501 1499 1497 1495 1492 1490 1488 1486 1483 1482 1479 1477 1475 1473 1472 1470 1468 1466
1530 1530 1529 1528 1528 1527 1525 1524 1523 1521 1520 1518 1516 1515 1513 1511 1509 1507 1505 1503 1501 1498 1496 1494 1491 1489 1487 1485 1482 1480 1478 1475 1473 1471 1469 1467 1465 1463
1532 1531 1531 1530 1529 1528 1526 1525 1523 1522 1520 1519 1517 1515 1513 1512 1510 1508 1506 1503 1501 1498 1496 1494 1491 1488 1486 1484 1481 1479 1477 1474 1472 1469 1467 1465 1463 1461
1533 1533 1532 1531 1530 1528 1527 1525 1524 1522 1521 1519 1517 1515 1514 1512 1510 1508 1506 1503 1501 1498 1496 1493 1490 1488 1486 1483 1480 1478 1475 1473 1470 1468 1466 1464 1462 1459
1534 1534 1533 1532 1530 1529 1527 1526 1524 1523 1521 1519 1517 1515 1513 1512 1510 1507 1505 1503 1501 1498 1495 1493 1490 1487 1485 1482 1480 1477 1474 1472 1469 1467 1465 1462 1461 1458